[[{"header":{"parameterUnit":"m.s-1","parameterCategory":2,"la1":30.2991,"la2":30.254,"lo1":-89.0895,"lo2":-89.0444,"dy":0.0017,"dx":0.0017,"nx":28,"ny":28,"refTime":"2024-09-28T09:00:00:Z","depth":"0","parameterNumber":2,"parameterNumberName":"U-component_of_CURRENTS"},"data":[0,0,0,0,0,0,0,0,0,0,0,0,0,0,0,0,0,0,0,0,0,0,0,0,0,0,0,0,0,0,0,0,0,0,0,0,0,0,0,0,0,0,0,0,0,0,0,0,0,0,0,0,0,0,0,0,0,0,0.2658,0.2659,0,0.2756,0.2757,0.2758,0.2758,0.2757,0.2756,0.2755,0.2813,0.2815,0.2818,0,0,0,0,0,0,0,0,0,0,0,0,0,0.2461,0.2465,0.2657,0.2659,0.266,0.2756,0.2757,0.2759,0.2759,0.2757,0.2756,0.2755,0.2812,0.2815,0.2818,0,0,0,0,0,0,0,0,0,0,0,0,0,0.255,0.2466,0.2657,0.2673,0.2676,0.2756,0.2758,0.2759,0.2759,0.2757,0.2756,0.2754,0.2811,0.2814,0.2818,0.2875,0,0,0.283,0.2832,0,0,0,0,0,0,0,0,0.2545,0.2557,0.2669,0.2672,0.2675,0.2745,0.2709,0.2796,0.2759,0.2725,0.2755,0.2753,0.2789,0.2794,0.2814,0.2878,0.288,0.283,0.2833,0.2834,0.2835,0,0,0,0,0,0,0,0.2539,0.2553,0.2695,0.2671,0.2675,0.2673,0.2684,0.2726,0.2763,0.2728,0.2729,0.2743,0.2789,0.2811,0.2816,0.2881,0.283,0.2834,0.2836,0.2837,0.302,0.3022,0,0,0,0,0,0,0.2534,0.2548,0.2692,0.2698,0.2607,0.2678,0.269,0.2723,0.2763,0.2769,0.2745,0.2743,0.2805,0.2811,0.2818,0.2922,0.2834,0.2838,0.284,0.3017,0.3021,0.3023,0,0,0,0,0,0,0.2529,0.2546,0.2688,0.2625,0.2643,0.2684,0.272,0.2726,0.275,0.2777,0.2781,0.2764,0.2804,0.2812,0.2869,0.2922,0.284,0.2843,0.3014,0.3018,0.3022,0.3108,0,0,0,0,0,0,0.2524,0.2545,0.2571,0.2625,0.2646,0.2754,0.2722,0.2729,0.2762,0.2761,0.2795,0.2798,0.2803,0.2864,0.2873,0.2926,0.2846,0.3011,0.3016,0.3021,0.3102,0.3114,0.3125,0,0,0,0,0,0.2517,0.2577,0.2573,0.259,0.2681,0.2757,0.2768,0.2788,0.2765,0.2798,0.2812,0.2797,0.29,0.2869,0.288,0.2935,0.3009,0.3015,0.302,0.3097,0.3112,0.3125,0,0,0,0,0,0,0.2509,0.2585,0.258,0.266,0.2705,0.2757,0.2802,0.2797,0.2836,0.2834,0.2833,0.2841,0.292,0.2913,0.2878,0.3001,0.2952,0.296,0.3006,0.3021,0.3032,0.3045,0.2849,0,0,0,0,0,0.2518,0.2584,0.2636,0.27,0.2728,0.2759,0.279,0.2803,0.2841,0.2856,0.2874,0.2901,0.2956,0.2972,0.3021,0.3081,0.3104,0.3122,0.3134,0.3143,0.3162,0.3246,0.3267,0.3042,0.3042,0.3042,0,0,0.253,0.2583,0.2617,0.2702,0.2741,0.2789,0.2775,0.2841,0.287,0.2859,0.2914,0.2955,0.2985,0.3065,0.3097,0.3059,0.3221,0.3151,0.3159,0.3172,0.3255,0.3277,0.3296,0.3046,0.3045,0.3045,0,0,0.2592,0.2639,0.2705,0.2747,0.2815,0.2835,0.2852,0.2907,0.2926,0.2983,0.2995,0.3065,0.3115,0.3165,0.3189,0.3292,0.3293,0.3303,0.3357,0.3439,0.3459,0.3476,0.3536,0.3558,0.329,0.3291,0.3291,0,0.2593,0.2687,0.2735,0.2798,0.2839,0.2851,0.291,0.2937,0.2996,0.3034,0.3007,0.3141,0.3168,0.3278,0.3317,0.3321,0.3358,0.3299,0.3455,0.3472,0.3489,0.3546,0.357,0.3295,0.3295,0.3294,0.3294,0,0.2691,0.2758,0.2809,0.2883,0.293,0.2997,0.3028,0.3073,0.3082,0.311,0.3222,0.3268,0.3343,0.337,0.3375,0.3513,0.3501,0.3473,0.3418,0.3517,0.3571,0.3594,0.3302,0.3301,0.3299,0.3298,0,0,0.2706,0.2848,0.2858,0.2892,0.2983,0.3019,0.3094,0.3171,0.3197,0.3268,0.3332,0.3453,0.3479,0.3512,0.3539,0.3607,0.3756,0.3591,0.3593,0.3648,0.3937,0.3849,0.3865,0.3758,0.3762,0.3766,0.393,0,0.276,0.2881,0.2943,0.3024,0.3084,0.3129,0.3177,0.324,0.3284,0.3342,0.3429,0.3494,0.3526,0.3558,0.3653,0.3732,0.382,0.3714,0.3836,0.384,0.3748,0.3889,0.3694,0.3818,0.3952,0.3955,0.3958,0,0.2825,0.29,0.3002,0.3086,0.3111,0.3142,0.322,0.3266,0.3364,0.3402,0.3515,0.356,0.3713,0.3683,0.391,0.3843,0.3916,0.3963,0.3969,0.3874,0.3795,0.3742,0.3853,0.3752,0.3992,0.3989,0.3987,0,0.2802,0.2929,0.3005,0.3039,0.3134,0.3172,0.3205,0.3292,0.3334,0.3437,0.3479,0.3651,0.3713,0.3868,0.399,0.3966,0.4197,0.4162,0.4161,0.4154,0.4005,0.3978,0.4029,0.433,0.433,0.433,0.4329,0,0.284,0.2891,0.2986,0.302,0.3073,0.3136,0.3189,0.3243,0.3327,0.3379,0.3498,0.3568,0.3763,0.3906,0.4028,0.4172,0.4242,0.4216,0.421,0.4028,0.4002,0.3916,0.3837,0.4336,0.4334,0.4333,0.4332,0,0.2819,0.2888,0.2966,0.3054,0.307,0.3097,0.3169,0.3196,0.3274,0.3349,0.3386,0.3546,0.372,0.3898,0.4119,0.4188,0.4212,0.4357,0.4119,0.4083,0.3964,0.3895,0.3832,0.3738,0.4405,0.4404,0.4403,0,0.2835,0.2875,0.2965,0.2983,0.3021,0.3066,0.3088,0.3167,0.3198,0.333,0.3356,0.3531,0.3627,0.3912,0.4061,0.4259,0.416,0.4184,0.4108,0.3969,0.3891,0.3752,0.3668,0.3954,0.395,0.3946,0.3944,0,0.2853,0.2875,0.2926,0.2962,0.2983,0.3012,0.3044,0.3063,0.3145,0.3203,0.3271,0.335,0.3583,0.3679,0.3912,0.4019,0.3946,0.4115,0.4046,0.3618,0.3397,0.3296,0.3825,0.3912,0.3915,0.3917,0.3919,0.392,0.2849,0.2874,0.2915,0.2927,0.2942,0.2921,0.29,0.2939,0.2964,0.2996,0.3131,0.3175,0.3337,0.3621,0.3715,0.3724,0.3736,0.3664,0.3621,0.3518,0.3329,0.378,0.3802,0.3804,0.3807,0.3808,0.381,0,0.2826,0.2839,0.2868,0.286,0.2812,0.2844,0.2833,0.278,0.2752,0.2842,0.2878,0.2941,0.304,0.3199,0.3295,0.3238,0.3157,0.3185,0.2951,0.2921,0.34,0.328,0.3096,0.3096,0.3096,0.3096,0.3097,0.3097,0.2814,0.2808,0.2806,0.2711,0.2685,0.2579,0.2538,0.249,0.2509,0.2464,0.2465,0.2537,0.2713,0.286,0.2849,0.2817,0.2647,0.2528,0.2586,0.2914,0.2955,0.2995,0.2868,0.26,0.26,0.1997,0.1992,0.1988]},{"header":{"parameterUnit":"m.s-1","parameterCategory":2,"la1":30.2991,"la2":30.254,"lo1":-89.0895,"lo2":-89.0444,"dy":0.0017,"dx":0.0017,"nx":28,"ny":28,"refTime":"2024-09-28T09:00:00:Z","depth":"0","parameterNumber":3,"parameterNumberName":"V-component_of_CURRENTS"},"data":[0,0,0,0,0,0,0,0,0,0,0,0,0,0,0,0,0,0,0,0,0,0,0,0,0,0,0,0,0,0,0,0,0,0,0,0,0,0,0,0,0,0,0,0,0,0,0,0,0,0,0,0,0,0,0,0,0,0,0.006,0.0059,0,-0.0064,-0.0065,-0.0067,-0.0149,-0.0149,-0.015,-0.015,-0.0264,-0.0267,-0.027,0,0,0,0,0,0,0,0,0,0,0,0,0,0.0174,0.0172,0.006,0.0059,0.0058,-0.0063,-0.0065,-0.0067,-0.0149,-0.0149,-0.015,-0.015,-0.0263,-0.0267,-0.027,0,0,0,0,0,0,0,0,0,0,0,0,0,0.0092,0.0171,0.006,0.0004,-0.0002,-0.0063,-0.0066,-0.0068,-0.0149,-0.015,-0.015,-0.015,-0.0262,-0.0266,-0.0271,-0.0289,0,0,-0.0283,-0.0285,0,0,0,0,0,0,0,0,0.0096,0.0087,0.0014,0.0008,0.0001,-0.0089,-0.0067,-0.014,-0.0149,-0.0096,-0.015,-0.015,-0.0202,-0.0212,-0.0239,-0.0294,-0.0299,-0.0284,-0.0286,-0.0288,-0.0289,0,0,0,0,0,0,0,0.0102,0.0092,0.0008,0.0013,0.0005,-0.0032,-0.0044,-0.0082,-0.0148,-0.0101,-0.0107,-0.0115,-0.0206,-0.0234,-0.0242,-0.0301,-0.0284,-0.0287,-0.029,-0.0292,-0.0321,-0.032,0,0,0,0,0,0,0.0127,0.0097,0.0012,0.0004,0.0053,-0.0033,-0.0047,-0.0062,-0.0148,-0.0161,-0.0115,-0.0118,-0.0227,-0.0237,-0.0246,-0.0206,-0.0288,-0.0292,-0.0294,-0.0323,-0.0321,-0.0319,0,0,0,0,0,0,0.013,0.012,0.0017,0.0051,0.0036,-0.0034,-0.0051,-0.0064,-0.0089,-0.0158,-0.0171,-0.0124,-0.0228,-0.024,-0.0271,-0.0214,-0.0294,-0.0298,-0.0325,-0.0322,-0.032,-0.0169,0,0,0,0,0,0,0.0133,0.0122,0.0121,0.0053,0.0035,-0.0009,-0.0051,-0.0066,-0.0092,-0.0098,-0.017,-0.0182,-0.0229,-0.0264,-0.0275,-0.0221,-0.0301,-0.0327,-0.0324,-0.0321,-0.0176,-0.0162,-0.0149,0,0,0,0,0,0.0138,0.0143,0.0121,0.0111,0.0035,-0.0008,-0.0021,-0.0074,-0.0091,-0.0098,-0.0144,-0.018,-0.025,-0.0267,-0.028,-0.0226,-0.0329,-0.0325,-0.0321,-0.0182,-0.0165,-0.015,0,0,0,0,0,0,0.0193,0.0134,0.0108,0.0095,0.0051,-0.0021,-0.0028,-0.0064,-0.0108,-0.011,-0.0175,-0.019,-0.0188,-0.0235,-0.0252,-0.0224,-0.0288,-0.0287,-0.0178,-0.0162,-0.0149,-0.009,-0.0305,0,0,0,0,0,0.0206,0.0193,0.0131,0.0122,0.0106,0.0041,0.0019,-0.0018,-0.0065,-0.0086,-0.0133,-0.0171,-0.0183,-0.0197,-0.0229,-0.0227,-0.0242,-0.0195,-0.0182,-0.017,-0.0131,-0.011,-0.009,-0.0306,-0.0306,-0.0306,0,0,0.0226,0.0193,0.0185,0.0134,0.0097,0.0089,0.0026,0.0,0.0006,-0.0089,-0.0093,-0.0132,-0.0174,-0.0164,-0.0165,-0.0195,-0.012,-0.0165,-0.0154,-0.0121,-0.0104,-0.0082,-0.0064,-0.0304,-0.0304,-0.0305,0,0,0.0265,0.0231,0.0235,0.0207,0.0161,0.0127,0.0128,0.0063,0.0047,0.0028,-0.0014,-0.0007,-0.0071,-0.0059,-0.0065,0.0005,-0.005,-0.0019,0.01,0.0119,0.0138,0.0155,0.0154,0.0169,-0.0009,-0.0009,-0.0009,0,0.0292,0.0285,0.0231,0.023,0.0225,0.0156,0.017,0.0147,0.0083,0.0099,0.0047,0.0043,0.0,0.007,0.0092,0.0045,0.0023,0.0042,0.0141,0.0156,0.0171,0.0166,0.018,-0.0001,-0.0002,-0.0003,-0.0004,0,0.0329,0.0328,0.0333,0.0315,0.0304,0.0302,0.0269,0.0267,0.0242,0.0227,0.0269,0.0222,0.0231,0.0223,0.0173,0.0269,0.0209,0.0155,0.0107,0.0202,0.0189,0.0202,0.001,0.0007,0.0005,0.0003,0,0,0.0373,0.0363,0.0364,0.0381,0.035,0.0349,0.0381,0.0399,0.0448,0.0411,0.0487,0.0482,0.0466,0.0461,0.0419,0.044,0.0511,0.0344,0.0341,0.0358,0.0534,0.0477,0.0484,0.0458,0.0461,0.0464,0.0482,0,0.0419,0.0452,0.0432,0.048,0.0499,0.0473,0.0514,0.0529,0.0534,0.0586,0.0595,0.0631,0.0555,0.0569,0.0589,0.0526,0.0552,0.0511,0.0428,0.0426,0.0376,0.0501,0.0441,0.0451,0.0494,0.0496,0.0497,0,0.0458,0.0479,0.053,0.058,0.0588,0.061,0.0684,0.071,0.0773,0.0783,0.0841,0.082,0.0882,0.0783,0.078,0.0745,0.067,0.0615,0.0613,0.0525,0.0395,0.0363,0.0472,0.0294,0.0516,0.0515,0.0513,0,0.0516,0.0555,0.0607,0.0615,0.0652,0.0691,0.072,0.0776,0.0827,0.0918,0.0967,0.1015,0.1038,0.0985,0.0868,0.0822,0.0837,0.0752,0.0645,0.0637,0.0559,0.054,0.0506,0.0774,0.0774,0.0774,0.0774,0,0.0567,0.0609,0.064,0.0663,0.0746,0.0756,0.0854,0.0892,0.0977,0.1069,0.1076,0.1156,0.1084,0.1067,0.0948,0.0849,0.0902,0.0714,0.0663,0.0606,0.0592,0.0407,0.0331,0.0774,0.0774,0.0774,0.0774,0,0.0605,0.0622,0.0683,0.0741,0.0765,0.0822,0.0909,0.0988,0.1056,0.1181,0.1216,0.1273,0.1259,0.1167,0.108,0.095,0.0765,0.0797,0.0727,0.0669,0.0394,0.0329,0.0312,0.0261,0.0704,0.0703,0.0702,0,0.0627,0.066,0.0729,0.0768,0.0789,0.0873,0.0936,0.1016,0.1102,0.1249,0.1321,0.1361,0.1399,0.1266,0.1065,0.0893,0.0748,0.0695,0.0617,0.0422,0.0312,0.028,0.0237,0.0562,0.056,0.0558,0.0557,0,0.0668,0.0685,0.0727,0.0806,0.0871,0.0961,0.1058,0.1134,0.125,0.1357,0.1486,0.1532,0.1425,0.1254,0.1017,0.0865,0.058,0.0657,0.0486,0.0255,0.0192,0.0101,0.0484,0.0543,0.0545,0.0546,0.0546,0.0547,0.069,0.0723,0.0776,0.0852,0.0931,0.1044,0.1127,0.1243,0.1383,0.1552,0.1581,0.166,0.1384,0.1071,0.0867,0.0417,0.0489,0.0245,0.02,0.0199,0.0117,0.0471,0.0446,0.0446,0.0447,0.0448,0.0448,0,0.0721,0.0758,0.0826,0.0921,0.1014,0.1056,0.1209,0.1306,0.1469,0.1605,0.1706,0.1575,0.1228,0.0873,0.0309,0.0004,-0.008,-0.0169,-0.0242,-0.0251,0.0076,0.003,-0.0124,-0.0124,-0.0124,-0.0123,-0.0123,-0.0123,0.0738,0.0797,0.0833,0.0978,0.1052,0.119,0.128,0.1422,0.1538,0.1676,0.1702,0.1705,0.139,0.0411,-0.0258,-0.0407,-0.0593,-0.0641,-0.0681,-0.0519,-0.0485,-0.0452,-0.0515,-0.078,-0.0781,-0.1005,-0.1008,-0.101]}],[{"header":{"parameterUnit":"m.s-1","parameterCategory":2,"la1":30.2991,"la2":30.254,"lo1":-89.0895,"lo2":-89.0444,"dy":0.0017,"dx":0.0017,"nx":28,"ny":28,"refTime":"2024-09-28T09:00:00:Z","depth":"2","parameterNumber":2,"parameterNumberName":"U-component_of_CURRENTS"},"data":[0,0,0,0,0,0,0,0,0,0,0,0,0,0,0,0,0,0,0,0,0,0,0,0,0,0,0,0,0,0,0,0,0,0,0,0,0,0,0,0,0,0,0,0,0,0,0,0,0,0,0,0,0,0,0,0,0,0,0.2029,0.2031,0,0.2103,0.2103,0.2103,0.2088,0.2088,0.2088,0.2087,0.2086,0.2087,0.2087,0,0,0,0,0,0,0,0,0,0,0,0,0,0.1836,0.1839,0.2029,0.2031,0.2033,0.2103,0.2103,0.2103,0.2088,0.2088,0.2087,0.2087,0.2086,0.2087,0.2087,0,0,0,0,0,0,0,0,0,0,0,0,0,0.1906,0.184,0.2029,0.2042,0.2044,0.2103,0.2103,0.2103,0.2088,0.2088,0.2087,0.2087,0.2086,0.2087,0.2087,0.2101,0,0,0.2089,0.2089,0,0,0,0,0,0,0,0,0.1902,0.1912,0.2038,0.2041,0.2044,0.2095,0.2036,0.2103,0.2089,0.206,0.2087,0.2087,0.209,0.209,0.2091,0.2101,0.2101,0.2089,0.2089,0.2089,0.2089,0,0,0,0,0,0,0,0.1897,0.1908,0.2047,0.204,0.2044,0.2032,0.204,0.2047,0.2068,0.2063,0.2065,0.209,0.2089,0.2091,0.2091,0.2101,0.2089,0.2089,0.2089,0.209,0.2195,0.2198,0,0,0,0,0,0,0.1913,0.1904,0.2045,0.2051,0.1982,0.2037,0.2045,0.2071,0.2069,0.2072,0.2091,0.2089,0.209,0.209,0.2091,0.2166,0.2089,0.209,0.209,0.2193,0.2196,0.2199,0,0,0,0,0,0,0.1908,0.1925,0.2043,0.1987,0.2003,0.2042,0.207,0.2073,0.211,0.2093,0.2092,0.213,0.209,0.209,0.2128,0.2164,0.209,0.209,0.219,0.2194,0.2197,0.228,0,0,0,0,0,0,0.1902,0.1922,0.1944,0.1989,0.2007,0.2048,0.2071,0.2075,0.213,0.2129,0.2126,0.2123,0.2089,0.2128,0.2129,0.2163,0.2091,0.2187,0.2192,0.2196,0.2274,0.2286,0.2296,0,0,0,0,0,0.1895,0.1921,0.1945,0.1962,0.2036,0.2048,0.2052,0.2072,0.2133,0.2112,0.2158,0.2125,0.2158,0.213,0.2131,0.2166,0.2184,0.219,0.2196,0.2269,0.2284,0.2296,0,0,0,0,0,0,0.1847,0.1925,0.1951,0.2,0.2013,0.2048,0.2068,0.2105,0.213,0.2161,0.2158,0.2156,0.221,0.2184,0.2154,0.2214,0.2167,0.2173,0.2222,0.2236,0.2247,0.2278,0.2091,0,0,0,0,0,0.1853,0.188,0.1943,0.1967,0.2003,0.2054,0.2076,0.2092,0.213,0.2143,0.2164,0.2197,0.223,0.223,0.2243,0.227,0.2272,0.2295,0.2306,0.2316,0.2344,0.2445,0.2468,0.2217,0.2217,0.2217,0,0,0.183,0.1885,0.1894,0.1957,0.1995,0.2033,0.2062,0.2103,0.2136,0.2141,0.2212,0.2247,0.2255,0.2289,0.2308,0.2268,0.2369,0.2323,0.2331,0.2355,0.2454,0.2478,0.25,0.2221,0.222,0.222,0,0,0.1797,0.187,0.1886,0.1919,0.199,0.2028,0.2057,0.2127,0.216,0.2219,0.2263,0.2337,0.2352,0.2381,0.2396,0.2485,0.2445,0.2477,0.2535,0.2632,0.2654,0.2674,0.2621,0.2635,0.2459,0.246,0.246,0,0.1787,0.1822,0.1879,0.1921,0.1972,0.2043,0.2083,0.2122,0.2188,0.225,0.2241,0.2402,0.2404,0.2502,0.2524,0.2513,0.2513,0.2477,0.2648,0.2668,0.2687,0.2629,0.2644,0.2464,0.2464,0.2463,0.2463,0,0.1774,0.181,0.1835,0.1919,0.1963,0.2006,0.2095,0.2156,0.2244,0.23,0.2436,0.2476,0.257,0.258,0.2573,0.2713,0.2646,0.2669,0.2613,0.2718,0.2648,0.2662,0.2471,0.2469,0.2468,0.2467,0,0,0.1774,0.1816,0.1832,0.1858,0.1985,0.2012,0.2116,0.2223,0.2309,0.2403,0.2513,0.2626,0.2699,0.2725,0.2751,0.2823,0.292,0.2799,0.2802,0.2741,0.3036,0.2808,0.2799,0.2985,0.299,0.2994,0.2901,0,0.1769,0.1787,0.1843,0.1891,0.1934,0.2051,0.2123,0.2233,0.2338,0.2446,0.2578,0.2674,0.2734,0.2777,0.2889,0.2924,0.2977,0.2936,0.2949,0.2947,0.2733,0.2818,0.2663,0.2555,0.2914,0.2916,0.2918,0,0.1803,0.1795,0.1817,0.1884,0.1925,0.1975,0.215,0.2215,0.2396,0.248,0.266,0.274,0.2897,0.291,0.3085,0.3058,0.3073,0.3083,0.3081,0.2864,0.2751,0.2529,0.2567,0.2941,0.2939,0.2938,0.2936,0,0.1785,0.1823,0.1825,0.1853,0.1924,0.1994,0.2072,0.2247,0.2322,0.2512,0.2585,0.2799,0.2873,0.3014,0.3093,0.3092,0.3223,0.321,0.3009,0.2986,0.2854,0.2811,0.3343,0.3343,0.3343,0.3343,0.3344,0,0.1798,0.1808,0.1808,0.1806,0.1844,0.1949,0.2048,0.2157,0.2318,0.2411,0.2605,0.2693,0.2919,0.3024,0.3098,0.3088,0.3245,0.3031,0.2986,0.2861,0.2823,0.3181,0.3164,0.334,0.3341,0.3341,0.3342,0,0.1776,0.1774,0.1768,0.1803,0.1828,0.1863,0.2,0.2078,0.2233,0.2357,0.2415,0.2623,0.2715,0.2875,0.3018,0.3027,0.3065,0.3021,0.2776,0.2704,0.2731,0.2719,0.2743,0.2735,0.2728,0.2722,0.2718,0,0.1759,0.1744,0.1734,0.1735,0.1752,0.1817,0.188,0.2029,0.2112,0.2303,0.2348,0.2463,0.2536,0.2621,0.2637,0.2653,0.285,0.2511,0.2499,0.2735,0.269,0.2688,0.2685,0.2316,0.2308,0.2302,0.2297,0,0.1702,0.17,0.1658,0.1661,0.1702,0.1747,0.1844,0.1876,0.2054,0.2142,0.2257,0.231,0.2315,0.2252,0.2231,0.2245,0.2495,0.2368,0.278,0.2471,0.2321,0.2279,0.2294,0.2242,0.2247,0.2251,0.2254,0.2256,0.1656,0.161,0.1576,0.1597,0.1642,0.1705,0.1719,0.1825,0.1902,0.1986,0.2057,0.2063,0.2053,0.1872,0.1854,0.1853,0.1976,0.1999,0.2025,0.2057,0.2004,0.185,0.1663,0.1665,0.1667,0.1668,0.167,0,0.1546,0.1539,0.1543,0.154,0.1581,0.1665,0.1719,0.172,0.1777,0.1794,0.1829,0.1635,0.1541,0.1578,0.1451,0.1413,0.1488,0.1418,0.1558,0.1611,0.1658,0.1594,0.1139,0.1138,0.1137,0.1135,0,0,0.1477,0.1412,0.1428,0.1482,0.1548,0.1577,0.1604,0.1609,0.1598,0.151,0.1461,0.1437,0.1501,0.1282,0.1248,0.1197,0.1409,0.1159,0.1583,0.1799,0.1845,0.198,0.1935,0,0,0,0,0]},{"header":{"parameterUnit":"m.s-1","parameterCategory":2,"la1":30.2991,"la2":30.254,"lo1":-89.0895,"lo2":-89.0444,"dy":0.0017,"dx":0.0017,"nx":28,"ny":28,"refTime":"2024-09-28T09:00:00:Z","depth":"2","parameterNumber":3,"parameterNumberName":"V-component_of_CURRENTS"},"data":[0,0,0,0,0,0,0,0,0,0,0,0,0,0,0,0,0,0,0,0,0,0,0,0,0,0,0,0,0,0,0,0,0,0,0,0,0,0,0,0,0,0,0,0,0,0,0,0,0,0,0,0,0,0,0,0,0,0,-0.0196,-0.0198,0,-0.0303,-0.0304,-0.0305,-0.0342,-0.0342,-0.0341,-0.0341,-0.0443,-0.0446,-0.0449,0,0,0,0,0,0,0,0,0,0,0,0,0,-0.0044,-0.0047,-0.0196,-0.0198,-0.0199,-0.0303,-0.0304,-0.0306,-0.0342,-0.0342,-0.0341,-0.0341,-0.0442,-0.0446,-0.0449,0,0,0,0,0,0,0,0,0,0,0,0,0,-0.0125,-0.0047,-0.0196,-0.0231,-0.0235,-0.0303,-0.0304,-0.0306,-0.0342,-0.0342,-0.0341,-0.0341,-0.0441,-0.0445,-0.045,-0.0488,0,0,-0.0464,-0.0466,0,0,0,0,0,0,0,0,-0.0121,-0.0131,-0.0224,-0.0228,-0.0233,-0.031,-0.0288,-0.0367,-0.0342,-0.03,-0.0341,-0.0341,-0.0399,-0.0407,-0.0427,-0.0493,-0.0497,-0.0464,-0.0467,-0.0469,-0.047,0,0,0,0,0,0,0,-0.0115,-0.0127,-0.0238,-0.0226,-0.0231,-0.0248,-0.0258,-0.0303,-0.035,-0.0304,-0.0307,-0.0321,-0.0401,-0.0423,-0.043,-0.0499,-0.0464,-0.0468,-0.0471,-0.0473,-0.0594,-0.0595,0,0,0,0,0,0,-0.0104,-0.0122,-0.0234,-0.0241,-0.0176,-0.0251,-0.0263,-0.0285,-0.035,-0.036,-0.0321,-0.0322,-0.0415,-0.0424,-0.0433,-0.0444,-0.0469,-0.0473,-0.0476,-0.0594,-0.0595,-0.0595,0,0,0,0,0,0,-0.01,-0.0113,-0.023,-0.0183,-0.02,-0.0254,-0.0278,-0.0287,-0.0302,-0.0363,-0.0373,-0.0326,-0.0415,-0.0427,-0.0468,-0.0449,-0.0475,-0.0479,-0.0593,-0.0594,-0.0595,-0.0489,0,0,0,0,0,0,-0.0096,-0.0111,-0.0121,-0.0183,-0.0202,-0.0279,-0.0279,-0.029,-0.0312,-0.0314,-0.0371,-0.0381,-0.0416,-0.046,-0.0472,-0.0456,-0.0483,-0.0593,-0.0594,-0.0595,-0.0492,-0.0486,-0.0481,0,0,0,0,0,-0.009,-0.011,-0.0121,-0.0135,-0.0215,-0.0281,-0.0292,-0.0327,-0.0313,-0.0334,-0.0357,-0.0378,-0.0475,-0.0465,-0.0478,-0.0463,-0.0592,-0.0593,-0.0595,-0.0495,-0.0488,-0.0482,0,0,0,0,0,0,-0.0049,-0.0118,-0.0131,-0.0171,-0.0224,-0.0287,-0.0305,-0.0321,-0.0356,-0.035,-0.0387,-0.04,-0.0427,-0.0471,-0.0458,-0.0505,-0.0537,-0.0541,-0.0456,-0.045,-0.0445,-0.0384,-0.0487,0,0,0,0,0,-0.0044,-0.0081,-0.0144,-0.0178,-0.0196,-0.0244,-0.027,-0.0299,-0.0339,-0.0353,-0.0385,-0.042,-0.0445,-0.0466,-0.0509,-0.0538,-0.0556,-0.054,-0.0535,-0.0529,-0.0492,-0.047,-0.0457,-0.0599,-0.0599,-0.0599,0,0,-0.0043,-0.0081,-0.0105,-0.0172,-0.0206,-0.0232,-0.0258,-0.0303,-0.0311,-0.0359,-0.0372,-0.0405,-0.0451,-0.0476,-0.0492,-0.0507,-0.0518,-0.0531,-0.0525,-0.0491,-0.0469,-0.0455,-0.0442,-0.06,-0.0599,-0.0599,0,0,-0.0054,-0.0084,-0.0113,-0.0147,-0.0202,-0.023,-0.0237,-0.0295,-0.0305,-0.0337,-0.0354,-0.0364,-0.0435,-0.0439,-0.0453,-0.0447,-0.0488,-0.0481,-0.0401,-0.038,-0.0366,-0.0354,-0.0426,-0.042,-0.0478,-0.0478,-0.0478,0,-0.0037,-0.0081,-0.0133,-0.0155,-0.016,-0.0218,-0.0223,-0.0255,-0.0317,-0.0295,-0.0334,-0.0354,-0.0403,-0.0374,-0.0376,-0.0426,-0.0454,-0.0414,-0.0366,-0.0354,-0.0343,-0.0419,-0.0414,-0.0473,-0.0474,-0.0474,-0.0475,0,-0.0065,-0.0089,-0.0103,-0.0138,-0.0155,-0.0179,-0.0212,-0.0225,-0.0232,-0.0241,-0.0223,-0.0279,-0.0271,-0.0305,-0.034,-0.0287,-0.0351,-0.0356,-0.0365,-0.0321,-0.0407,-0.0404,-0.0466,-0.0468,-0.0469,-0.047,0,0,-0.0035,-0.0106,-0.0104,-0.0102,-0.0136,-0.0151,-0.0143,-0.0136,-0.0088,-0.0144,-0.0074,-0.012,-0.0117,-0.0131,-0.0173,-0.0166,-0.0153,-0.0224,-0.0225,-0.0267,-0.0169,-0.0222,-0.0226,-0.0139,-0.0136,-0.0134,-0.0283,0,-0.0025,-0.0057,-0.0081,-0.0075,-0.0081,-0.0089,-0.0062,-0.0055,-0.0046,-0.0006,-0.0022,0.0005,-0.0062,-0.0049,-0.0044,-0.0121,-0.013,-0.0116,-0.023,-0.0235,-0.0259,-0.0216,-0.0188,-0.0315,-0.0281,-0.028,-0.028,0,-0.0018,-0.0041,-0.0041,-0.0018,-0.001,0.0,0.0082,0.009,0.0139,0.0156,0.0198,0.0181,0.0182,0.0123,0.0048,0.0058,-0.0031,-0.0103,-0.011,-0.0175,-0.0276,-0.0344,-0.0312,-0.0276,-0.0276,-0.0276,-0.0276,0,0.0032,0.0013,0.0023,0.0023,0.0024,0.0066,0.0092,0.0153,0.0208,0.0268,0.0321,0.0322,0.0323,0.0243,0.0103,0.0077,0.0009,-0.0054,-0.0192,-0.0203,-0.0205,-0.0218,-0.0069,-0.0069,-0.0069,-0.0068,-0.0068,0,0.0061,0.0072,0.0046,0.0045,0.0113,0.0116,0.0218,0.0249,0.0335,0.043,0.0414,0.0479,0.0368,0.0314,0.016,-0.0004,0.0054,-0.0158,-0.021,-0.0182,-0.019,-0.0161,-0.0169,-0.0074,-0.0073,-0.0072,-0.0071,0,0.0095,0.007,0.0083,0.0099,0.0122,0.0171,0.0276,0.0361,0.0422,0.0543,0.0571,0.0598,0.05,0.0357,0.0206,0.007,-0.0088,-0.0152,-0.0158,-0.0205,-0.0356,-0.0359,-0.0366,-0.0368,-0.037,-0.0372,-0.0373,0,0.0098,0.0098,0.0121,0.0159,0.0167,0.0242,0.0321,0.0397,0.0498,0.0616,0.0688,0.0651,0.0628,0.0364,0.0133,-0.0146,-0.0137,-0.028,-0.0305,-0.032,-0.037,-0.037,-0.0369,-0.0322,-0.0323,-0.0324,-0.0324,0,0.0113,0.0122,0.0133,0.0208,0.0282,0.0378,0.0487,0.0577,0.0688,0.0785,0.0901,0.0883,0.0626,0.0377,0.0023,-0.0149,-0.0241,-0.0308,-0.026,-0.0239,-0.0286,-0.0334,-0.0333,-0.033,-0.033,-0.0329,-0.0329,-0.0329,0.014,0.0163,0.0198,0.0284,0.0379,0.0527,0.0624,0.0753,0.0908,0.1025,0.0993,0.0934,0.0643,0.0148,-0.0079,-0.0305,-0.0348,-0.0434,-0.0429,-0.0423,-0.0378,-0.0423,-0.0492,-0.0493,-0.0493,-0.0493,-0.0493,0,0.0177,0.0214,0.0288,0.0402,0.0538,0.0577,0.0758,0.0867,0.1052,0.1052,0.1079,0.0785,0.0474,0.0182,-0.0174,-0.0414,-0.0392,-0.046,-0.0382,-0.0377,-0.0372,-0.032,-0.0422,-0.0422,-0.0422,-0.0422,0,0,0.0198,0.0268,0.0314,0.0533,0.0635,0.0821,0.093,0.1071,0.1115,0.1122,0.1033,0.0805,0.0475,0.0221,-0.0075,-0.023,-0.0239,-0.0255,-0.0299,-0.017,-0.0161,-0.036,-0.0275,0,0,0,0,0]}],[{"header":{"parameterUnit":"m.s-1","parameterCategory":2,"la1":30.2991,"la2":30.254,"lo1":-89.0895,"lo2":-89.0444,"dy":0.0017,"dx":0.0017,"nx":28,"ny":28,"refTime":"2024-09-28T09:00:00:Z","depth":"4","parameterNumber":2,"parameterNumberName":"U-component_of_CURRENTS"},"data":[0,0,0,0,0,0,0,0,0,0,0,0,0,0,0,0,0,0,0,0,0,0,0,0,0,0,0,0,0,0,0,0,0,0,0,0,0,0,0,0,0,0,0,0,0,0,0,0,0,0,0,0,0,0,0,0,0,0,0.0259,0.0259,0,0.0258,0.0258,0.0258,0.0307,0.0308,0.0309,0.031,0.034,0.034,0.0339,0,0,0,0,0,0,0,0,0,0,0,0,0,0.0484,0.0478,0.0259,0.0259,0.0258,0.0258,0.0258,0.0258,0.0307,0.0308,0.0309,0.0311,0.034,0.034,0.0339,0,0,0,0,0,0,0,0,0,0,0,0,0,0.0426,0.0477,0.0259,0.0281,0.0283,0.0258,0.0258,0.0258,0.0306,0.0308,0.031,0.0311,0.034,0.034,0.0339,0.0303,0,0,0.0338,0.0338,0,0,0,0,0,0,0,0,0.0429,0.0418,0.0278,0.028,0.0282,0.0283,0.0348,0.0274,0.0306,0.0299,0.031,0.0312,0.0321,0.0322,0.0321,0.0305,0.0306,0.0338,0.0338,0.0338,0.0338,0,0,0,0,0,0,0,0.0433,0.0419,0.026,0.0278,0.028,0.0354,0.0346,0.0335,0.0303,0.03,0.0303,0.03,0.0323,0.0321,0.0322,0.0306,0.0338,0.0338,0.0338,0.0337,0.0343,0.0343,0,0,0,0,0,0,0.0416,0.0421,0.026,0.026,0.0359,0.0347,0.0339,0.0282,0.0302,0.0306,0.0298,0.0302,0.0321,0.0322,0.0323,0.0377,0.0338,0.0337,0.0337,0.0342,0.0343,0.0343,0,0,0,0,0,0,0.042,0.04,0.026,0.0344,0.0331,0.034,0.0277,0.0281,0.0321,0.03,0.0306,0.0338,0.0322,0.0324,0.0355,0.0375,0.0337,0.0337,0.0342,0.0343,0.0343,0.0423,0,0,0,0,0,0,0.0426,0.04,0.0364,0.034,0.0325,0.0266,0.0276,0.028,0.0312,0.0318,0.0335,0.0337,0.0324,0.0355,0.0354,0.0374,0.0337,0.0341,0.0342,0.0343,0.042,0.0426,0.0431,0,0,0,0,0,0.0433,0.0377,0.036,0.0343,0.0269,0.0266,0.0267,0.0283,0.0313,0.0327,0.0351,0.0339,0.0358,0.0356,0.0354,0.0374,0.0341,0.0342,0.0343,0.0417,0.0425,0.0431,0,0,0,0,0,0,0.0456,0.0375,0.0357,0.0277,0.0281,0.0275,0.0284,0.0305,0.0334,0.0359,0.0351,0.0354,0.0385,0.0365,0.0363,0.0374,0.0344,0.0344,0.0401,0.0408,0.0414,0.0431,0.0336,0,0,0,0,0,0.0437,0.0372,0.0337,0.028,0.0283,0.0294,0.0301,0.0323,0.0339,0.0356,0.037,0.0378,0.0376,0.0386,0.0379,0.0392,0.0372,0.0399,0.0405,0.041,0.0421,0.0423,0.0431,0.0346,0.0346,0.0346,0,0,0.0417,0.0379,0.0332,0.0283,0.0288,0.0301,0.0305,0.0332,0.036,0.0352,0.0406,0.0405,0.0384,0.04,0.041,0.0396,0.0418,0.0411,0.0416,0.0425,0.0425,0.0433,0.044,0.0347,0.0346,0.0346,0,0,0.0396,0.033,0.0294,0.0304,0.0322,0.0329,0.0349,0.0371,0.04,0.0437,0.0439,0.0458,0.0461,0.0452,0.0444,0.0475,0.045,0.0472,0.0521,0.0522,0.053,0.0536,0.0504,0.0507,0.0475,0.0475,0.0476,0,0.0391,0.0329,0.0296,0.0307,0.0322,0.035,0.0371,0.0394,0.0434,0.0457,0.0467,0.0487,0.0479,0.0489,0.0507,0.049,0.0482,0.05,0.0533,0.0539,0.0544,0.0509,0.0512,0.0479,0.0479,0.0479,0.0478,0,0.0358,0.0338,0.0337,0.0338,0.0356,0.0381,0.041,0.0452,0.0494,0.0514,0.0555,0.0549,0.0562,0.0555,0.0547,0.0577,0.0555,0.0542,0.0521,0.0558,0.0518,0.0519,0.0485,0.0484,0.0482,0.0481,0,0,0.0275,0.0301,0.031,0.0333,0.0382,0.0394,0.0451,0.049,0.0535,0.0574,0.0617,0.0623,0.0642,0.0634,0.0625,0.0631,0.0656,0.062,0.0618,0.0599,0.0649,0.0653,0.0654,0.0666,0.0667,0.0668,0.0601,0,0.0273,0.03,0.0316,0.0364,0.0381,0.0434,0.0477,0.0529,0.0575,0.0626,0.0637,0.0672,0.0664,0.0686,0.0695,0.0659,0.0667,0.0674,0.0607,0.0604,0.0614,0.0659,0.0671,0.0601,0.0601,0.0601,0.0601,0,0.0239,0.0267,0.031,0.038,0.0394,0.0436,0.0516,0.0563,0.0635,0.0675,0.0723,0.074,0.0757,0.0753,0.0724,0.0737,0.0717,0.0686,0.0682,0.0664,0.0612,0.0559,0.0603,0.0603,0.0603,0.0602,0.0602,0,0.0197,0.0262,0.0301,0.0324,0.0404,0.0448,0.0502,0.0582,0.0631,0.072,0.0763,0.0785,0.0806,0.0784,0.0739,0.0745,0.0696,0.068,0.0658,0.0655,0.0634,0.0627,0.0686,0.0686,0.0686,0.0686,0.0686,0,0.0174,0.0204,0.0292,0.0311,0.0371,0.044,0.0515,0.0577,0.067,0.0714,0.0795,0.0814,0.0828,0.0804,0.0754,0.0703,0.0704,0.068,0.0654,0.0663,0.0662,0.0633,0.0627,0.0683,0.0684,0.0684,0.0685,0,0.0118,0.0174,0.0217,0.0314,0.0351,0.0397,0.0519,0.0567,0.0672,0.0734,0.0769,0.0842,0.0827,0.0809,0.0756,0.0723,0.0661,0.0648,0.0642,0.0613,0.061,0.0609,0.0615,0.0615,0.0615,0.0615,0.0615,0,0.0093,0.0108,0.0205,0.0243,0.0294,0.038,0.0435,0.0555,0.06,0.0715,0.0722,0.0784,0.0812,0.0734,0.0719,0.0652,0.0652,0.0617,0.065,0.0637,0.0611,0.061,0.0609,0.0615,0.0615,0.0615,0.0615,0,0.0039,0.0075,0.0115,0.0191,0.0258,0.0327,0.0412,0.0444,0.0563,0.0648,0.0695,0.0729,0.0732,0.0714,0.0703,0.0636,0.0634,0.0616,0.0616,0.0648,0.0636,0.061,0.061,0.0615,0.0615,0.0615,0.0615,0,-0.0001,0.0012,0.0071,0.0141,0.0215,0.0273,0.0323,0.0395,0.0467,0.0601,0.0584,0.0651,0.0703,0.0702,0.0643,0.0639,0.0638,0.0613,0.0613,0.0613,0.0651,0.0638,0.061,0,0,0,0,0,-0.004,-0.0021,0.0025,0.0105,0.0174,0.0224,0.0309,0.0358,0.0451,0.0478,0.0555,0.056,0.0596,0.0609,0.0604,0.0621,0.0613,0.0611,0.0577,0.0614,0.0615,0.0663,0,0,0,0,0,0,-0.0059,-0.0033,0.0001,0.0068,0.0116,0.0189,0.0243,0.03,0.033,0.0425,0.0442,0.0528,0.0551,0.0591,0.0591,0.0597,0.0567,0.0651,0.065,0.0614,0.0614,0.0615,0.0665,0,0,0,0,0]},{"header":{"parameterUnit":"m.s-1","parameterCategory":2,"la1":30.2991,"la2":30.254,"lo1":-89.0895,"lo2":-89.0444,"dy":0.0017,"dx":0.0017,"nx":28,"ny":28,"refTime":"2024-09-28T09:00:00:Z","depth":"4","parameterNumber":3,"parameterNumberName":"V-component_of_CURRENTS"},"data":[0,0,0,0,0,0,0,0,0,0,0,0,0,0,0,0,0,0,0,0,0,0,0,0,0,0,0,0,0,0,0,0,0,0,0,0,0,0,0,0,0,0,0,0,0,0,0,0,0,0,0,0,0,0,0,0,0,0,0.0274,0.0275,0,0.0321,0.0321,0.0322,0.033,0.033,0.0329,0.0329,0.0323,0.0323,0.0323,0,0,0,0,0,0,0,0,0,0,0,0,0,0.0154,0.0156,0.0274,0.0275,0.0276,0.0321,0.0321,0.0322,0.033,0.033,0.0329,0.0329,0.0323,0.0323,0.0323,0,0,0,0,0,0,0,0,0,0,0,0,0,0.0202,0.0157,0.0274,0.0287,0.0288,0.0321,0.0322,0.0322,0.033,0.033,0.0329,0.0329,0.0323,0.0323,0.0323,0.033,0,0,0.0324,0.0324,0,0,0,0,0,0,0,0,0.0199,0.0206,0.0284,0.0286,0.0288,0.0321,0.0277,0.0323,0.033,0.0312,0.0329,0.0329,0.0319,0.032,0.0327,0.033,0.0329,0.0324,0.0324,0.0324,0.0324,0,0,0,0,0,0,0,0.0196,0.0204,0.0291,0.0285,0.0287,0.0277,0.0284,0.0286,0.0314,0.0313,0.0315,0.0323,0.032,0.0327,0.0327,0.0329,0.0324,0.0324,0.0324,0.0324,0.0219,0.0216,0,0,0,0,0,0,0.0197,0.0202,0.0289,0.0292,0.0244,0.028,0.0287,0.0309,0.0315,0.0317,0.0324,0.0324,0.0327,0.0327,0.0326,0.0258,0.0324,0.0324,0.0324,0.0222,0.0218,0.0215,0,0,0,0,0,0,0.0195,0.0205,0.0287,0.0248,0.0258,0.0283,0.0307,0.031,0.0322,0.0324,0.0324,0.0332,0.0327,0.0326,0.0312,0.026,0.0324,0.0324,0.0225,0.0221,0.0217,0.0169,0,0,0,0,0,0,0.0191,0.0204,0.0222,0.0249,0.0261,0.0312,0.0308,0.0311,0.0328,0.0329,0.0331,0.033,0.0326,0.0312,0.0312,0.0262,0.0324,0.0229,0.0223,0.0218,0.0175,0.0164,0.0155,0,0,0,0,0,0.0187,0.0225,0.0223,0.0233,0.0284,0.0313,0.0318,0.0331,0.0329,0.0339,0.0322,0.0331,0.0277,0.0311,0.0312,0.026,0.0231,0.0225,0.0219,0.0179,0.0166,0.0155,0,0,0,0,0,0,0.0181,0.023,0.0228,0.0278,0.0291,0.0315,0.0336,0.0335,0.0333,0.0331,0.0322,0.032,0.0276,0.0277,0.0315,0.0207,0.0244,0.0238,0.0213,0.0202,0.0192,0.0185,0.0324,0,0,0,0,0,0.0187,0.023,0.0253,0.029,0.0301,0.0314,0.0328,0.0333,0.0336,0.0337,0.0323,0.0293,0.025,0.0238,0.0212,0.0181,0.0172,0.0135,0.0125,0.0117,0.0107,0.0018,0.0,0.0195,0.0195,0.0195,0,0,0.0194,0.0227,0.0249,0.0291,0.0307,0.0314,0.0322,0.0349,0.0329,0.0335,0.0302,0.027,0.0233,0.0178,0.0156,0.0177,0.0066,0.0109,0.0103,0.0097,0.001,-0.0009,-0.0026,0.019,0.0191,0.0192,0,0,0.0224,0.0257,0.0293,0.0307,0.0334,0.0331,0.0337,0.0346,0.0327,0.0297,0.0267,0.0208,0.0173,0.0115,0.0084,0.0009,0.0017,-0.0009,-0.0058,-0.0145,-0.0161,-0.0175,-0.0163,-0.0176,-0.0014,-0.0014,-0.0014,0,0.0223,0.027,0.0303,0.0329,0.0331,0.0334,0.0339,0.0323,0.0313,0.0275,0.0279,0.0154,0.013,0.0027,-0.0015,-0.0014,-0.0028,-0.0003,-0.0156,-0.0171,-0.0185,-0.0169,-0.0183,-0.0017,-0.0016,-0.0016,-0.0016,0,0.0266,0.0295,0.0319,0.0341,0.0343,0.0359,0.0333,0.0308,0.0272,0.0235,0.0133,0.0082,0.0004,-0.0033,-0.0046,-0.0175,-0.0136,-0.0154,-0.0118,-0.0207,-0.0184,-0.0197,-0.0021,-0.002,-0.0019,-0.0018,0,0,0.0282,0.0335,0.0343,0.034,0.0348,0.0351,0.0305,0.0252,0.0204,0.0145,0.0061,-0.0051,-0.0087,-0.0128,-0.0168,-0.0252,-0.0351,-0.025,-0.0253,-0.0221,-0.0478,-0.0406,-0.0412,-0.0403,-0.0407,-0.041,-0.0402,0,0.0294,0.0338,0.0351,0.0351,0.0359,0.033,0.0283,0.0229,0.0166,0.0087,-0.0012,-0.0093,-0.0121,-0.0166,-0.0263,-0.033,-0.0398,-0.0346,-0.0412,-0.0412,-0.0326,-0.0432,-0.0423,-0.0412,-0.0416,-0.0418,-0.0419,0,0.032,0.0345,0.0359,0.0341,0.0338,0.0321,0.0237,0.0198,0.0087,0.0035,-0.0071,-0.013,-0.0257,-0.0272,-0.0431,-0.0397,-0.0449,-0.0496,-0.0497,-0.0429,-0.0369,-0.0321,-0.0444,-0.0442,-0.044,-0.0438,-0.0437,0,0.031,0.0338,0.0343,0.0345,0.0329,0.0296,0.0264,0.0173,0.0127,0.0004,-0.0041,-0.0188,-0.0253,-0.0375,-0.0452,-0.0461,-0.06,-0.0615,-0.0589,-0.0579,-0.0617,-0.0602,-0.075,-0.075,-0.075,-0.075,-0.075,0,0.0309,0.0316,0.0341,0.0346,0.0321,0.0298,0.0242,0.0185,0.0102,0.0042,-0.0063,-0.0135,-0.0298,-0.0382,-0.0462,-0.0542,-0.0603,-0.0614,-0.0605,-0.0628,-0.0616,-0.0622,-0.0607,-0.075,-0.075,-0.075,-0.075,0,0.0294,0.032,0.0333,0.0329,0.0324,0.0303,0.0262,0.0216,0.0145,0.0066,0.003,-0.0107,-0.022,-0.0324,-0.0491,-0.053,-0.0622,-0.0632,-0.0577,-0.0561,-0.053,-0.0518,-0.062,-0.0618,-0.0617,-0.0615,-0.0614,0,0.0285,0.0299,0.0331,0.0339,0.0338,0.0316,0.0293,0.0237,0.0193,0.0085,0.0042,-0.0074,-0.0167,-0.0307,-0.0435,-0.0542,-0.057,-0.0579,-0.0646,-0.0552,-0.0533,-0.0523,-0.0514,-0.0612,-0.0611,-0.0611,-0.0611,0,0.0264,0.029,0.0302,0.0329,0.0327,0.0321,0.0286,0.0262,0.0187,0.0148,0.0047,-0.0049,-0.0161,-0.0295,-0.0357,-0.0453,-0.0564,-0.0564,-0.0569,-0.0632,-0.0543,-0.0523,-0.0516,-0.0605,-0.0606,-0.0606,-0.0607,0,0.0243,0.0252,0.0281,0.0291,0.0312,0.0298,0.0289,0.0239,0.0201,0.01,0.0075,-0.0054,-0.0132,-0.0247,-0.0318,-0.0385,-0.0431,-0.0457,-0.0469,-0.0477,-0.0448,-0.0314,-0.0322,0,0,0,0,0,0.0207,0.021,0.0232,0.0245,0.0274,0.0279,0.0264,0.0249,0.0204,0.0148,0.0111,0.0013,-0.0121,-0.0196,-0.0255,-0.0311,-0.0448,-0.0381,-0.0485,-0.0574,-0.0581,-0.0569,0,0,0,0,0,0,0.018,0.0197,0.0213,0.0209,0.0215,0.0225,0.0222,0.0196,0.0161,0.0121,0.0049,0.0019,-0.0115,-0.0083,-0.0251,-0.0276,-0.0344,-0.0445,-0.0445,-0.0571,-0.0577,-0.0582,-0.0572,0,0,0,0,0]}]]